Location: B?lite?ti
(46.2833°N, 22.7333°E)
Time: 17:30:44
(UTC+00:00)

Cosmos 1833 Rocket - Pass Details

Date: 24 January 2021
Orbit: 833 x 839 km, 71.0° (Epoch: 01 March)

Event Time Altitude Azimuth Distance (km) Brightness Sun altitude
Rises 16:42:14 0° 338° (NNW) 3,391 6.0 -13.8°
Reaches altitude 10° 16:44:54 10° 347° (NNW) 2,454 5.1 -14.2°
Maximum altitude 16:50:02 35° 53° (NE) 1,324 3.3 -15.1°
Enters shadow 16:53:10 20° 105° (ESE) 1,830 3.9 -15.6°
